• In Belarus
  • List of Countries
  • For 7 days
  • Water Temperature
  • Satellite Maps
  • Weather Map
  • Weather Widgets
  • user-avatar
    Login

    Hourly Weather Kobdo

    Today, 15 November, Thursday

    Time Temperature Precipitation Wind Pressure Humidity
    00:00 -15°C° 0 mm 1 mps 592 mmHg 50%
    01:00 -15°C° 0 mm 1 mps 592 mmHg 50%
    02:00 -15°C° 0 mm 1 mps 592 mmHg 49%
    03:00 -15°C° 0 mm 1 mps 592 mmHg 49%
    04:00 -15°C° 0 mm 1 mps 592 mmHg 48%
    05:00 -16°C° 0 mm 1 mps 592 mmHg 48%
    06:00 -16°C° 0 mm 1 mps 592 mmHg 47%
    07:00 -15°C° 0 mm 1 mps 592 mmHg 45%
    08:00 -14°C° 0 mm 1 mps 593 mmHg 43%
    09:00 -13°C° 0 mm 1 mps 593 mmHg 41%
    10:00 -12°C° 0 mm 1 mps 593 mmHg 39%
    11:00 -11°C° 0 mm 1 mps 593 mmHg 37%
    12:00 -9°C° 0 mm 1 mps 593 mmHg 35%
    13:00 -9°C° 0 mm 1 mps 593 mmHg 36%
    14:00 -10°C° 0 mm 1 mps 593 mmHg 36%
    15:00 -10°C° 0 mm 1 mps 593 mmHg 37%
    16:00 -11°C° 0 mm 1 mps 593 mmHg 39%
    17:00 -11°C° 0 mm 1 mps 592 mmHg 41%
    18:00 -14°C° 0 mm 2 mps 592 mmHg 43%
    19:00 -15°C° 0 mm 2 mps 592 mmHg 42%
    20:00 -15°C° 0 mm 2 mps 592 mmHg 41%
    21:00 -15°C° 0 mm 2 mps 591 mmHg 39%
    22:00 -15°C° 0 mm 2 mps 591 mmHg 37%
    23:00 -15°C° 0 mm 2 mps 591 mmHg 36%

    Tomorrow, 16 November, Friday

    Time Temperature Precipitation Wind Pressure Humidity
    00:00 -15°C° 0 mm 2 mps 591 mmHg 34%
    01:00 -15°C° 0 mm 2 mps 591 mmHg 33%
    02:00 -16°C° 0 mm 2 mps 591 mmHg 32%
    03:00 -16°C° 0 mm 2 mps 590 mmHg 31%
    04:00 -16°C° 0 mm 2 mps 590 mmHg 31%
    05:00 -16°C° 0 mm 2 mps 590 mmHg 31%
    06:00 -16°C° 0 mm 2 mps 590 mmHg 30%
    07:00 -15°C° 0 mm 2 mps 590 mmHg 31%
    08:00 -14°C° 0 mm 2 mps 591 mmHg 31%
    09:00 -14°C° 0 mm 2 mps 591 mmHg 31%
    10:00 -12°C° 0 mm 2 mps 591 mmHg 30%
    11:00 -10°C° 0 mm 2 mps 591 mmHg 30%
    12:00 -9°C° 0 mm 2 mps 591 mmHg 29%
    13:00 -9°C° 0 mm 2 mps 591 mmHg 31%
    14:00 -8°C° 0 mm 1 mps 591 mmHg 33%
    15:00 -8°C° 0 mm 1 mps 591 mmHg 35%
    16:00 -9°C° 0 mm 1 mps 591 mmHg 38%
    17:00 -9°C° 0 mm 1 mps 591 mmHg 40%
    18:00 -10°C° 0 mm 1 mps 591 mmHg 43%
    19:00 -10°C° 0 mm 1 mps 591 mmHg 46%
    20:00 -10°C° 0 mm 1 mps 591 mmHg 49%
    21:00 -10°C° 0 mm 1 mps 591 mmHg 52%
    22:00 -11°C° 0 mm 1 mps 591 mmHg 56%
    23:00 -11°C° 0 mm 1 mps 591 mmHg 61%

    Day after tomorrow, 17 November, Saturday

    Time Temperature Precipitation Wind Pressure Humidity
    00:00 -11°C° 0 mm 1 mps 591 mmHg 66%
    01:00 -12°C° 0 mm 1 mps 591 mmHg 70%
    02:00 -12°C° 0 mm 1 mps 591 mmHg 74%
    03:00 -13°C° 0 mm 1 mps 591 mmHg 78%
    04:00 -13°C° 0 mm 1 mps 590 mmHg 79%
    05:00 -14°C° 0 mm 1 mps 590 mmHg 81%
    06:00 -14°C° 0 mm 1 mps 590 mmHg 82%
    07:00 -14°C° 0 mm 1 mps 590 mmHg 78%
    08:00 -13°C° 0 mm 1 mps 590 mmHg 74%
    09:00 -13°C° 0 mm 1 mps 591 mmHg 70%
    10:00 -12°C° 0 mm 1 mps 591 mmHg 67%
    11:00 -11°C° 0 mm 1 mps 590 mmHg 63%
    12:00 -10°C° 0 mm 1 mps 590 mmHg 60%
    13:00 -10°C° 0 mm 1 mps 590 mmHg 60%
    14:00 -13°C° 0 mm 2 mps 589 mmHg 60%
    15:00 -13°C° 0 mm 2 mps 589 mmHg 60%
    16:00 -13°C° 0 mm 2 mps 589 mmHg 64%
    17:00 -12°C° 0 mm 1 mps 588 mmHg 67%
    18:00 -13°C° 0 mm 1 mps 588 mmHg 70%
    19:00 -15°C° 0 mm 2 mps 587 mmHg 68%
    20:00 -16°C° 0 mm 2 mps 587 mmHg 67%
    21:00 -16°C° 0 mm 2 mps 587 mmHg 65%
    22:00 -16°C° 0 mm 2 mps 586 mmHg 63%
    23:00 -16°C° 0 mm 2 mps 586 mmHg 61%

    18 November, Sunday

    Time Temperature Precipitation Wind Pressure Humidity
    00:00 -16°C° 0 mm 2 mps 586 mmHg 59%
    01:00 -16°C° 0 mm 2 mps 585 mmHg 60%
    02:00 -16°C° 0 mm 2 mps 585 mmHg 61%
    03:00 -16°C° 0 mm 2 mps 584 mmHg 61%
    04:00 -16°C° 0 mm 2 mps 584 mmHg 63%
    05:00 -16°C° 0 mm 2 mps 584 mmHg 65%
    06:00 -16°C° 0 mm 2 mps 584 mmHg 66%
    07:00 -15°C° 0 mm 2 mps 584 mmHg 65%
    08:00 -15°C° 0 mm 2 mps 584 mmHg 63%
    09:00 -14°C° 0 mm 2 mps 585 mmHg 61%
    10:00 -13°C° 0 mm 2 mps 585 mmHg 59%
    11:00 -12°C° 0 mm 2 mps 585 mmHg 57%
    12:00 -12°C° 0 mm 2 mps 585 mmHg 55%
    13:00 -10°C° 0 mm 1 mps 585 mmHg 56%
    14:00 -10°C° 0 mm 1 mps 584 mmHg 58%
    15:00 -10°C° 0 mm 1 mps 584 mmHg 59%
    16:00 -11°C° 0 mm 1 mps 584 mmHg 63%
    17:00 -12°C° 0 mm 1 mps 584 mmHg 66%
    18:00 -12°C° 0 mm 1 mps 585 mmHg 70%
    19:00 -13°C° 0 mm 1 mps 585 mmHg 71%
    20:00 -13°C° 0 mm 1 mps 585 mmHg 72%
    21:00 -13°C° 0 mm 1 mps 585 mmHg 73%
    22:00 -13°C° 0 mm 1 mps 585 mmHg 74%
    23:00 -13°C° 0 mm 1 mps 585 mmHg 75%

    19 November, Monday

    Time Temperature Precipitation Wind Pressure Humidity
    00:00 -13°C° 0 mm 1 mps 585 mmHg 75%
    01:00 -14°C° 0.1 mm 1 mps 585 mmHg 77%
    02:00 -14°C° 0.1 mm 1 mps 585 mmHg 78%
    03:00 -14°C° 0.1 mm 1 mps 585 mmHg 79%
    04:00 -14°C° 0.1 mm 1 mps 586 mmHg 80%
    05:00 -14°C° 0.1 mm 1 mps 586 mmHg 81%
    06:00 -14°C° 0.1 mm 0 mps 586 mmHg 82%
    07:00 -14°C° 0.1 mm 1 mps 587 mmHg 80%
    08:00 -14°C° 0.1 mm 1 mps 587 mmHg 79%
    09:00 -13°C° 0.1 mm 1 mps 588 mmHg 77%
    10:00 -13°C° 0.1 mm 1 mps 588 mmHg 74%
    11:00 -13°C° 0.1 mm 1 mps 589 mmHg 71%
    12:00 -12°C° 0.1 mm 1 mps 589 mmHg 68%
    13:00 -12°C° 0 mm 1 mps 589 mmHg 67%
    14:00 -12°C° 0 mm 1 mps 589 mmHg 67%
    15:00 -12°C° 0 mm 1 mps 589 mmHg 67%
    16:00 -13°C° 0 mm 1 mps 590 mmHg 69%
    17:00 -14°C° 0 mm 1 mps 590 mmHg 72%
    18:00 -15°C° 0 mm 0 mps 590 mmHg 75%
    19:00 -15°C° 0 mm 1 mps 590 mmHg 74%
    20:00 -15°C° 0 mm 1 mps 590 mmHg 74%
    21:00 -16°C° 0 mm 1 mps 590 mmHg 74%
    22:00 -16°C° 0 mm 1 mps 590 mmHg 72%
    23:00 -16°C° 0 mm 1 mps 590 mmHg 69%

    20 November, Tuesday

    Time Temperature Precipitation Wind Pressure Humidity
    00:00 -18°C° 0 mm 2 mps 591 mmHg 67%
    01:00 -18°C° 0 mm 2 mps 590 mmHg 64%
    02:00 -18°C° 0 mm 2 mps 590 mmHg 61%
    03:00 -18°C° 0 mm 2 mps 590 mmHg 58%
    04:00 -18°C° 0 mm 2 mps 590 mmHg 55%
    05:00 -18°C° 0 mm 2 mps 590 mmHg 52%
    06:00 -19°C° 0 mm 2 mps 590 mmHg 50%
    07:00 -18°C° 0 mm 2 mps 591 mmHg 48%
    08:00 -17°C° 0 mm 2 mps 591 mmHg 46%
    09:00 -16°C° 0 mm 2 mps 591 mmHg 44%
    10:00 -15°C° 0 mm 2 mps 591 mmHg 42%
    11:00 -13°C° 0 mm 2 mps 592 mmHg 40%
    12:00 -12°C° 0 mm 2 mps 592 mmHg 39%
    13:00 -12°C° 0 mm 2 mps 591 mmHg 41%
    14:00 -12°C° 0 mm 2 mps 591 mmHg 43%
    15:00 -13°C° 0 mm 2 mps 591 mmHg 45%
    16:00 -13°C° 0 mm 2 mps 590 mmHg 47%
    17:00 -14°C° 0 mm 2 mps 590 mmHg 48%
    18:00 -15°C° 0 mm 2 mps 590 mmHg 49%
    19:00 -15°C° 0 mm 2 mps 590 mmHg 47%
    20:00 -16°C° 0 mm 2 mps 590 mmHg 46%
    21:00 -16°C° 0 mm 2 mps 590 mmHg 44%
    22:00 -16°C° 0 mm 2 mps 589 mmHg 43%
    23:00 -16°C° 0 mm 2 mps 589 mmHg 42%
    Show more